Skip Page Navigation
NASA JPL Caltech
NASA Logo - Jet Propulsion Laboratory + View the NASA Portal
+ Near-Earth Object (NEO) Program
Search JPL
JPL Home Earth Solar System Stars & Galaxies Technology
JPL Solar System Dynamics
BODIES ORBITS EPHEMERIDES TOOLS PHYSICAL DATA DISCOVERY FAQ SITE MAP
JPL Small-Body Database Browser
Search: [ help ]  
489 Comacina (1902 JM)
Classification: Main-belt Asteroid          SPK-ID: 2000489
Ephemeris | Orbit Diagram | Orbital Elements | Physical Parameters | Discovery Circumstances | Close-Approach Data ]

[ hide orbit diagram ]
Orbit Diagram
Note: Make sure you have Java enabled on your browser to see the applet. This applet is provided as a 3D orbit visualization tool. The applet was implemented using 2-body methods, and hence should not be used for determining accurate long-term trajectories (over several years or decades) or planetary encounter circumstances. For accurate long-term ephemerides, please instead use our Horizons system.
Orbit Viewer

Additional Notes: the orbits shown in the applet are color coded. The planets are white lines, and the asteroid/comet is a blue line. The bright white line indicates the portion of the orbit that is above the ecliptic plane, and the darker portion is below the ecliptic plane. Likewise for the asteroid/comet orbit, the light blue indicates the portion above the ecliptic plane, and the dark blue the portion below the ecliptic plane.

Orbit Viewer applet originally written and kindly provided by Osamu Ajiki (AstroArts), and further modified by Ron Baalke (JPL).


Orbital Elements at Epoch 2456400.5 (2013-Apr-18.0) TDB
Reference: JPL 68 (heliocentric ecliptic J2000)
 Element Value Uncertainty (1-sigma)   Units 
e .04416246116230975 4.9574e-08  
a 3.153313687051757 1.9643e-08 AU
q 3.014055593814754 1.5983e-07 AU
i 12.9959260991849 5.0934e-06 deg
node 166.9114775636481 2.8673e-05 deg
peri 11.69128225412079 7.4253e-05 deg
M 71.47117128339221 6.8393e-05 deg
tp 2455994.451800217281
(2012-Mar-07.95180022)
0.00038876 JED
period 2045.263136127533
5.60
1.9111e-05
5.232e-08
d
yr
n .1760164712505492 1.6447e-09 deg/d
Q 3.29257178028876 2.0511e-08 AU
  Orbit Determination Parameters
   # obs. used (total)      1126  
   data-arc span      37294 days (102.11 yr)  
   first obs. used      1911-03-01  
   last obs. used      2013-04-08  
   planetary ephem.      DE405  
   SB-pert. ephem.      SB405-CPV-2  
   condition code      0  
   fit RMS      .60362  
   data source      ORB  
   producer      Otto Matic  
   solution date      2013-Apr-29 12:35:54  

Additional Information
 Earth MOID = 2.01978 AU 
 T_jup = 3.166 
[ show covariance matrix ]

Ephemeris | Orbit Diagram | Orbital Elements | Physical Parameters | Discovery Circumstances | Close-Approach Data ]

Physical Parameter Table
Parameter Symbol Value Units Sigma Reference Notes
absolute magnitude H 8.32 mag n/a IRAS-A-FPA-3-RDR-IMPS-V6.0 IRAS observations used: 11
diameter diameter 139.39 km 3.0 IRAS-A-FPA-3-RDR-IMPS-V6.0 IRAS observations used: 11
rotation period rot_per 9.02 h n/a Asteroid Lightcurve DataBase (Rev. 2013-May-01) Published Reference List:
[Weidenschilling, S.J.; Chapman, C.R.; Davis, D.R.; Greenberg, R.; et al. (1990) Icarus 86, 402-447.]
[Stephens, R.D.; Brincat, S.M.; Koff, R.A. (2001) Minor Planet Bul. 28, 73.]
[Durech, J. (2006) IAU 2006, poster paper.]
[Hawkins, S.; Ditteon, R. (2008) Minor Planet Bul. 35, 1-4.]
geometric albedo albedo 0.0427   0.002 IRAS-A-FPA-3-RDR-IMPS-V6.0 IRAS observations used: 11
B-V BV .697 mag .016 EAR-A-5-DDR-UBV-MEAN-VALUES-V1.1 #obs=2; phase (min.=6.74, mean=7.53, max.=8.32) deg.
U-B UB .369 mag .045 EAR-A-5-DDR-UBV-MEAN-VALUES-V1.1 #obs=2; phase (min.=6.74, mean=7.53, max.=8.32) deg.
Tholen spectral type spec_T C   n/a EAR-A-5-DDR-TAXONOMY-V4.0 used 2 color indices

489 Comacina (1902 JM)          Discovered 1902-Sep-02 by Carnera, L. at Heidelberg (024)
Reference: DISCOVERY.DBLast Updated: 2003-08-29

[ show close-approach data ]
Alternate Designations
 1902 JM = A911 DA 
Ephemeris | Orbit Diagram | Orbital Elements | Physical Parameters | Discovery Circumstances | Close-Approach Data ]
ABOUT SSD CREDITS/AWARDS PRIVACY/COPYRIGHT GLOSSARY LINKS
FirstGov 2013-May-25 22:57 UT
(server date/time)  
NASA Home Page
Site Manager:   Donald K. Yeomans
Webmaster  Alan B. Chamberlin